[[{"header":{"parameterUnit":"m.s-1","parameterCategory":1,"la1":30.2991,"la2":30.254,"lo1":-89.0895,"lo2":-89.0444,"dy":0.0017,"dx":0.0017,"nx":28,"ny":28,"refTime":"2024-10-16T09:00:00:Z","depth":0,"parameterNumber":2,"parameterNumberName":"U-component_of_WINDS"},"data":[0,0,0,0,0,0,0,0,0,0,0,0,0,0,0,0,0,0,0,0,0,0,0,0,0,0,0,0,0,0,0,0,0,0,0,0,0,0,0,0,0,0,0,0,0,0,0,0,0,0,0,0,0,0,0,0,0,0,-4.6605,-4.6605,0,-4.6661,-4.6662,-4.6662,-4.6495,-4.649,-4.6485,-4.648,-4.6539,-4.6545,-4.6552,0,0,0,0,0,0,0,0,0,0,0,0,0,-4.6352,-4.6357,-4.6605,-4.6605,-4.6606,-4.6661,-4.6662,-4.6663,-4.6496,-4.649,-4.6484,-4.6478,-4.6537,-4.6545,-4.6552,0,0,0,0,0,0,0,0,0,0,0,0,0,-4.644,-4.6359,-4.6605,-4.653,-4.6523,-4.6661,-4.6662,-4.6663,-4.6498,-4.649,-4.6482,-4.6475,-4.6535,-4.6544,-4.6553,-4.6766,0,0,-4.6582,-4.6587,0,0,0,0,0,0,0,0,-4.6436,-4.645,-4.654,-4.6535,-4.6528,-4.6563,-4.6594,-4.6698,-4.6499,-4.6508,-4.648,-4.6471,-4.6554,-4.6561,-4.6589,-4.6769,-4.6771,-4.6583,-4.6589,-4.6593,-4.6596,0,0,0,0,0,0,0,-4.643,-4.6446,-4.6627,-4.6541,-4.6534,-4.6493,-4.6497,-4.6613,-4.6573,-4.6506,-4.6494,-4.6503,-4.6549,-4.658,-4.6589,-4.6772,-4.6583,-4.6591,-4.6597,-4.6601,-4.7127,-4.7135,0,0,0,0,0,0,-4.6433,-4.6442,-4.6625,-4.6629,-4.6462,-4.6504,-4.6508,-4.656,-4.6571,-4.6566,-4.651,-4.6495,-4.6567,-4.6578,-4.659,-4.6838,-4.6593,-4.6602,-4.6607,-4.7119,-4.7129,-4.7138,0,0,0,0,0,0,-4.6428,-4.6451,-4.6623,-4.6532,-4.6551,-4.6516,-4.6576,-4.6565,-4.6596,-4.6574,-4.6566,-4.6549,-4.6562,-4.6577,-4.6723,-4.6838,-4.6606,-4.6615,-4.7109,-4.7122,-4.7134,-4.7337,0,0,0,0,0,0,-4.6422,-4.645,-4.6531,-4.6535,-4.6557,-4.6756,-4.6583,-4.6572,-4.6612,-4.6594,-4.6608,-4.6603,-4.6557,-4.671,-4.6732,-4.6847,-4.6622,-4.7099,-4.7115,-4.713,-4.732,-4.7355,-4.7385,0,0,0,0,0,-4.6413,-4.6587,-4.6536,-4.6559,-4.6657,-4.6763,-4.6774,-4.6717,-4.6622,-4.6703,-4.6688,-4.6603,-4.6822,-4.6726,-4.675,-4.6869,-4.7091,-4.711,-4.7128,-4.7305,-4.7348,-4.7384,0,0,0,0,0,0,-4.6598,-4.6586,-4.653,-4.671,-4.6739,-4.6734,-4.6834,-4.6765,-4.6821,-4.6801,-4.6728,-4.6733,-4.6892,-4.6895,-4.6789,-4.7074,-4.694,-4.6965,-4.7066,-4.7107,-4.7139,-4.7134,-4.663,0,0,0,0,0,-4.666,-4.6747,-4.6731,-4.6892,-4.6909,-4.687,-4.6914,-4.6867,-4.6893,-4.6905,-4.6901,-4.693,-4.7005,-4.7056,-4.7124,-4.732,-4.7319,-4.7413,-4.7446,-4.7472,-4.7494,-4.7595,-4.7636,-4.7199,-4.7199,-4.7199,0,0,-4.6788,-4.6792,-4.6852,-4.6929,-4.6945,-4.7036,-4.6881,-4.6984,-4.7051,-4.692,-4.7057,-4.7056,-4.7084,-4.7255,-4.733,-4.7263,-4.7615,-4.7496,-4.7518,-4.7525,-4.7619,-4.766,-4.7697,-4.7212,-4.7209,-4.7207,0,0,-4.7067,-4.7081,-4.7214,-4.7234,-4.726,-4.7233,-4.7265,-4.7271,-4.7265,-4.7401,-4.7305,-4.7383,-4.7514,-4.7537,-4.7566,-4.7853,-4.7776,-4.7878,-4.8047,-4.8146,-4.8181,-4.8211,-4.8311,-4.8349,-4.79,-4.79,-4.79,0,-4.7223,-4.7357,-4.7292,-4.7401,-4.7437,-4.7323,-4.7457,-4.7479,-4.7528,-4.7555,-4.7478,-4.7639,-4.765,-4.7824,-4.7894,-4.7922,-4.7955,-4.7875,-4.8181,-4.8211,-4.8238,-4.8333,-4.8371,-4.7912,-4.7911,-4.7909,-4.7908,0,-4.7546,-4.764,-4.7745,-4.7793,-4.7841,-4.7963,-4.7915,-4.7972,-4.7921,-4.7902,-4.8041,-4.805,-4.8116,-4.8155,-4.8107,-4.8322,-4.8278,-4.8194,-4.8057,-4.8293,-4.838,-4.8416,-4.7929,-4.7925,-4.7921,-4.7918,0,0,-4.7943,-4.7953,-4.7992,-4.8012,-4.8032,-4.8103,-4.822,-4.8284,-4.8333,-4.837,-4.8464,-4.8578,-4.8498,-4.8531,-4.8484,-4.8572,-4.8796,-4.8475,-4.8475,-4.8533,-4.9032,-4.9094,-4.9138,-4.8746,-4.8752,-4.8758,-4.9029,0,-4.8217,-4.8415,-4.8359,-4.8557,-4.8642,-4.8534,-4.8634,-4.8658,-4.8643,-4.8712,-4.8695,-4.8776,-4.8666,-4.8684,-4.8767,-4.8752,-4.8895,-4.8732,-4.8832,-4.8836,-4.8826,-4.9184,-4.9251,-4.9506,-4.9063,-4.9069,-4.9073,0,-4.8562,-4.8612,-4.8818,-4.8822,-4.8856,-4.8947,-4.9001,-4.9069,-4.9093,-4.9075,-4.9112,-4.9047,-4.916,-4.9024,-4.9178,-4.9068,-4.9106,-4.9105,-4.9113,-4.9119,-4.8968,-4.9197,-4.9586,-4.9624,-4.9127,-4.9122,-4.9118,0,-4.8829,-4.8947,-4.9085,-4.9105,-4.9114,-4.9181,-4.9188,-4.9204,-4.9246,-4.9293,-4.9319,-4.938,-4.9412,-4.946,-4.9413,-4.9319,-4.9574,-4.9434,-4.9561,-4.9563,-4.9619,-4.9615,-5.0017,-4.9647,-4.9646,-4.9646,-4.9645,0,-4.9139,-4.9269,-4.9204,-4.9289,-4.9431,-4.9366,-4.9508,-4.9502,-4.9518,-4.9599,-4.951,-4.9588,-4.9522,-4.9594,-4.9558,-4.969,-4.9706,-4.9694,-4.9683,-4.9701,-4.9703,-4.9723,-4.9704,-4.9656,-4.9654,-4.9652,-4.965,0,-4.946,-4.9422,-4.9565,-4.9562,-4.9564,-4.9668,-4.9665,-4.9743,-4.9721,-4.9825,-4.9845,-4.9811,-4.9891,-4.9849,-4.9933,-4.9908,-5.0078,-5.0044,-5.007,-5.006,-5.0189,-5.0176,-5.0616,-5.067,-5.0268,-5.0272,-5.0275,0,-4.966,-4.9757,-4.9763,-4.9811,-4.9824,-4.9902,-4.9944,-4.9884,-4.9931,-4.9964,-5.0038,-5.011,-5.0164,-5.0298,-5.028,-5.0343,-5.0308,-5.0458,-5.0317,-5.0332,-5.0308,-5.0302,-5.031,-5.0486,-5.0491,-5.0494,-5.0498,0,-5.0017,-4.9993,-5.0056,-5.0113,-5.0165,-5.0207,-5.0242,-5.0286,-5.0226,-5.0284,-5.0364,-5.0406,-5.049,-5.0563,-5.0617,-5.0623,-5.0551,-5.0542,-5.0574,-5.0593,-5.0603,-5.0597,-5.0145,-5.0532,-5.0529,-5.0526,-5.0524,-5.0523,-5.0281,-5.0362,-5.0378,-5.0451,-5.0471,-5.0505,-5.0577,-5.0564,-5.063,-5.0693,-5.0653,-5.0748,-5.0767,-5.0832,-5.0848,-5.092,-5.086,-5.0908,-5.0919,-5.0932,-5.0948,-5.0594,-5.093,-5.0929,-5.0928,-5.0928,-5.0927,0,-5.0632,-5.0637,-5.0705,-5.0755,-5.0813,-5.0739,-5.0773,-5.0826,-5.0909,-5.0934,-5.0989,-5.1081,-5.115,-5.1138,-5.1201,-5.1261,-5.1229,-5.1279,-5.1273,-5.1275,-5.0999,-5.0964,-5.1304,-5.1304,-5.1304,-5.1304,-5.1304,-5.1304,-5.082,-5.0952,-5.093,-5.1069,-5.1073,-5.1164,-5.119,-5.122,-5.1239,-5.1345,-5.1402,-5.1393,-5.1403,-5.1465,-5.1526,-5.152,-5.1546,-5.1609,-5.1591,-5.1333,-5.1295,-5.126,-5.1226,-5.1616,-5.1616,-5.1861,-5.1863,-5.1865]},{"header":{"parameterUnit":"m.s-1","parameterCategory":1,"la1":30.2991,"la2":30.254,"lo1":-89.0895,"lo2":-89.0444,"dy":0.0017,"dx":0.0017,"nx":28,"ny":28,"refTime":"2024-10-16T09:00:00:Z","depth":0,"parameterNumber":3,"parameterNumberName":"V-component_of_WINDS"},"data":[0,0,0,0,0,0,0,0,0,0,0,0,0,0,0,0,0,0,0,0,0,0,0,0,0,0,0,0,0,0,0,0,0,0,0,0,0,0,0,0,0,0,0,0,0,0,0,0,0,0,0,0,0,0,0,0,0,0,-2.3042,-2.3042,0,-2.3048,-2.3049,-2.3049,-2.3056,-2.3056,-2.3056,-2.3056,-2.3061,-2.3061,-2.3061,0,0,0,0,0,0,0,0,0,0,0,0,0,-2.3033,-2.3033,-2.3042,-2.3042,-2.3042,-2.3048,-2.3049,-2.3049,-2.3056,-2.3056,-2.3056,-2.3057,-2.3061,-2.3061,-2.3061,0,0,0,0,0,0,0,0,0,0,0,0,0,-2.3038,-2.3033,-2.3042,-2.3047,-2.3047,-2.3048,-2.3049,-2.3049,-2.3056,-2.3056,-2.3056,-2.3057,-2.3061,-2.3061,-2.3061,-2.3058,0,0,-2.3061,-2.3061,0,0,0,0,0,0,0,0,-2.3038,-2.3038,-2.3046,-2.3047,-2.3047,-2.3052,-2.3047,-2.3052,-2.3056,-2.3053,-2.3056,-2.3057,-2.3058,-2.3058,-2.3059,-2.3058,-2.3058,-2.3061,-2.3061,-2.3061,-2.3061,0,0,0,0,0,0,0,-2.3037,-2.3038,-2.3045,-2.3046,-2.3047,-2.3047,-2.3048,-2.3048,-2.3054,-2.3053,-2.3054,-2.3054,-2.3058,-2.3059,-2.3059,-2.3058,-2.3061,-2.3061,-2.3061,-2.3061,-2.3051,-2.3051,0,0,0,0,0,0,-2.3037,-2.3038,-2.3044,-2.3045,-2.3043,-2.3047,-2.3048,-2.305,-2.3054,-2.3055,-2.3054,-2.3055,-2.3059,-2.3059,-2.3059,-2.3053,-2.3061,-2.3061,-2.3061,-2.3052,-2.3051,-2.3051,0,0,0,0,0,0,-2.3036,-2.3037,-2.3044,-2.3041,-2.3042,-2.3047,-2.3049,-2.305,-2.3051,-2.3055,-2.3056,-2.3054,-2.3059,-2.3059,-2.3057,-2.3054,-2.3061,-2.3061,-2.3052,-2.3051,-2.3051,-2.3043,0,0,0,0,0,0,-2.3036,-2.3037,-2.3037,-2.3041,-2.3043,-2.3043,-2.3049,-2.305,-2.3051,-2.3052,-2.3055,-2.3056,-2.3059,-2.3057,-2.3057,-2.3054,-2.3061,-2.3052,-2.3052,-2.3051,-2.3043,-2.3042,-2.3041,0,0,0,0,0,-2.3036,-2.3035,-2.3037,-2.3038,-2.3042,-2.3043,-2.3044,-2.3048,-2.3051,-2.305,-2.3052,-2.3056,-2.3054,-2.3057,-2.3057,-2.3054,-2.3052,-2.3052,-2.3051,-2.3044,-2.3042,-2.3041,0,0,0,0,0,0,-2.303,-2.3035,-2.3038,-2.3038,-2.304,-2.3045,-2.3044,-2.3047,-2.3048,-2.3048,-2.3053,-2.3053,-2.305,-2.3052,-2.3055,-2.3049,-2.3054,-2.3053,-2.3048,-2.3047,-2.3045,-2.3045,-2.3061,0,0,0,0,0,-2.3028,-2.3029,-2.3034,-2.3034,-2.3035,-2.3039,-2.3039,-2.3042,-2.3044,-2.3045,-2.3047,-2.3048,-2.3048,-2.3047,-2.3047,-2.3044,-2.3043,-2.3041,-2.304,-2.3039,-2.3038,-2.3034,-2.3032,-2.3049,-2.3049,-2.3049,0,0,-2.3026,-2.3029,-2.3029,-2.3033,-2.3034,-2.3034,-2.304,-2.304,-2.3039,-2.3045,-2.3043,-2.3044,-2.3046,-2.3042,-2.3041,-2.3043,-2.3033,-2.3038,-2.3037,-2.3037,-2.3033,-2.3031,-2.303,-2.3049,-2.3049,-2.3049,0,0,-2.302,-2.3024,-2.3023,-2.3024,-2.3027,-2.3029,-2.3029,-2.3032,-2.3033,-2.3031,-2.3035,-2.3033,-2.3033,-2.3033,-2.3033,-2.3025,-2.3027,-2.3025,-2.3018,-2.3014,-2.3013,-2.3011,-2.3006,-2.3005,-2.3024,-2.3024,-2.3024,0,-2.3017,-2.3017,-2.3022,-2.3021,-2.3021,-2.3026,-2.3024,-2.3025,-2.3027,-2.3026,-2.3029,-2.3027,-2.3029,-2.3024,-2.3022,-2.3022,-2.302,-2.3024,-2.3013,-2.3011,-2.301,-2.3006,-2.3004,-2.3023,-2.3023,-2.3023,-2.3023,0,-2.3012,-2.3012,-2.301,-2.3012,-2.3012,-2.3011,-2.3013,-2.3013,-2.3015,-2.3016,-2.3013,-2.3014,-2.3013,-2.3012,-2.3015,-2.3007,-2.3009,-2.3012,-2.3017,-2.3008,-2.3004,-2.3002,-2.3023,-2.3023,-2.3023,-2.3023,0,0,-2.3004,-2.3007,-2.3006,-2.3005,-2.3007,-2.3007,-2.3004,-2.3003,-2.3002,-2.3002,-2.2999,-2.2997,-2.3,-2.3,-2.3002,-2.2998,-2.2988,-2.3001,-2.3001,-2.2997,-2.2978,-2.2974,-2.2972,-2.299,-2.299,-2.299,-2.2977,0,-2.2998,-2.2995,-2.2998,-2.2994,-2.2992,-2.2996,-2.2993,-2.2993,-2.2994,-2.2992,-2.2992,-2.299,-2.2994,-2.2994,-2.299,-2.299,-2.2984,-2.2991,-2.2986,-2.2985,-2.2984,-2.297,-2.2968,-2.2956,-2.2975,-2.2975,-2.2975,0,-2.2992,-2.2992,-2.2987,-2.2987,-2.2986,-2.2984,-2.2982,-2.298,-2.2979,-2.298,-2.2978,-2.298,-2.2976,-2.2981,-2.2974,-2.2978,-2.2976,-2.2975,-2.2975,-2.2974,-2.2979,-2.2968,-2.2952,-2.295,-2.2973,-2.2973,-2.2973,0,-2.2985,-2.2983,-2.298,-2.2979,-2.2979,-2.2977,-2.2977,-2.2976,-2.2974,-2.2972,-2.2971,-2.2968,-2.2966,-2.2963,-2.2964,-2.2968,-2.2956,-2.2961,-2.2954,-2.2954,-2.2952,-2.2952,-2.2934,-2.2952,-2.2952,-2.2952,-2.2952,0,-2.2978,-2.2975,-2.2976,-2.2974,-2.2969,-2.2972,-2.2967,-2.2966,-2.2965,-2.2961,-2.2964,-2.296,-2.2962,-2.2958,-2.2958,-2.295,-2.295,-2.2949,-2.2949,-2.2948,-2.2948,-2.2946,-2.2947,-2.2951,-2.2951,-2.2951,-2.2952,0,-2.297,-2.2971,-2.2967,-2.2966,-2.2966,-2.2962,-2.2961,-2.2958,-2.2958,-2.2953,-2.2952,-2.2952,-2.2947,-2.2947,-2.2941,-2.2941,-2.2932,-2.2933,-2.2932,-2.2932,-2.2925,-2.2925,-2.2904,-2.2901,-2.2922,-2.2922,-2.2922,0,-2.2965,-2.2963,-2.2961,-2.2959,-2.2958,-2.2955,-2.2953,-2.2954,-2.2951,-2.2948,-2.2944,-2.2939,-2.2936,-2.2927,-2.2925,-2.292,-2.2921,-2.2914,-2.292,-2.2919,-2.2919,-2.2918,-2.2917,-2.2913,-2.2913,-2.2912,-2.2912,0,-2.2956,-2.2956,-2.2953,-2.295,-2.2947,-2.2944,-2.2942,-2.2939,-2.294,-2.2936,-2.2931,-2.2928,-2.2921,-2.2915,-2.291,-2.2908,-2.2909,-2.291,-2.2908,-2.2907,-2.2906,-2.2904,-2.2927,-2.2911,-2.2911,-2.2911,-2.2911,-2.2911,-2.2949,-2.2945,-2.2943,-2.2939,-2.2937,-2.2934,-2.293,-2.2928,-2.2924,-2.2919,-2.2919,-2.2913,-2.2909,-2.2901,-2.2899,-2.2892,-2.2895,-2.2892,-2.2891,-2.289,-2.2888,-2.2907,-2.2892,-2.2892,-2.2892,-2.2892,-2.2892,0,-2.2938,-2.2936,-2.2932,-2.2928,-2.2924,-2.2926,-2.2922,-2.2918,-2.2912,-2.2909,-2.2904,-2.2896,-2.289,-2.2887,-2.288,-2.2876,-2.2876,-2.2874,-2.2874,-2.2873,-2.2888,-2.289,-2.2874,-2.2874,-2.2874,-2.2874,-2.2874,-2.2874,-2.2933,-2.2926,-2.2925,-2.2917,-2.2915,-2.2908,-2.2905,-2.2902,-2.2898,-2.289,-2.2884,-2.2882,-2.2878,-2.287,-2.2864,-2.2863,-2.286,-2.2857,-2.2856,-2.287,-2.2872,-2.2874,-2.2875,-2.2856,-2.2856,-2.2841,-2.2841,-2.2841]}]]